TimeCST,TemperatureF,Dew PointF,Humidity,Sea Level PressureIn,VisibilityMPH,Wind Direction,Wind SpeedMPH,Gust SpeedMPH,PrecipitationIn,Events,Conditions,WindDirDegrees,DateUTC
12:15 AM,40.1,38.8,95,30.25,10.0,North,13.8,19.6,N/A,,Overcast,350,2013-12-10 06:15:00
12:35 AM,40.1,37.9,92,30.25,10.0,NNW,12.7,17.3,N/A,,Overcast,340,2013-12-10 06:35:00
12:55 AM,40.1,37.6,91,30.26,10.0,NNW,11.5,17.3,N/A,,Overcast,340,2013-12-10 06:55:00
1:15 AM,40.1,37.6,91,30.27,10.0,NNW,13.8,17.3,N/A,,Overcast,340,2013-12-10 07:15:00
1:35 AM,39.7,38.1,94,30.28,10.0,NNW,12.7,19.6,N/A,,Overcast,340,2013-12-10 07:35:00
1:55 AM,39.7,36.1,87,30.27,10.0,NNW,18.4,25.3,N/A,,Overcast,340,2013-12-10 07:55:00
2:15 AM,39.4,36.0,88,30.28,10.0,North,12.7,21.9,N/A,,Overcast,350,2013-12-10 08:15:00
2:35 AM,39.2,35.8,88,30.28,10.0,NNW,8.1,21.9,N/A,,Overcast,340,2013-12-10 08:35:00
2:55 AM,39.2,35.6,87,30.29,10.0,North,11.5,18.4,N/A,,Overcast,350,2013-12-10 08:55:00
3:15 AM,38.7,35.8,89,30.30,10.0,North,9.2,20.7,N/A,,Mostly Cloudy,350,2013-12-10 09:15:00
3:35 AM,38.8,35.6,88,30.30,10.0,NNW,13.8,18.4,N/A,,Overcast,340,2013-12-10 09:35:00
4:35 AM,38.3,34.7,87,30.32,10.0,NNW,17.3,27.6,N/A,,Overcast,340,2013-12-10 10:35:00
4:55 AM,38.3,33.4,83,30.33,10.0,North,15.0,26.5,N/A,,Overcast,350,2013-12-10 10:55:00
5:15 AM,37.8,33.1,83,30.33,10.0,North,15.0,24.2,N/A,,Overcast,360,2013-12-10 11:15:00
5:35 AM,37.6,32.7,83,30.33,10.0,North,16.1,27.6,N/A,,Overcast,350,2013-12-10 11:35:00
5:55 AM,37.4,32.4,82,30.35,10.0,North,15.0,26.5,N/A,,Overcast,350,2013-12-10 11:55:00
6:00 AM,37.4,33.8,87,30.33,10.0,North,17.3,24.2,N/A,,Overcast,360,2013-12-10 12:00:00
6:55 AM,37.4,33.8,87,30.39,10.0,North,17.3,24.2,N/A,,Overcast,360,2013-12-10 12:55:00
7:45 AM,37.4,33.8,87,30.39,10.0,North,17.3,24.2,N/A,,Overcast,360,2013-12-10 13:45:00
8:52 AM,37.4,33.8,87,30.42,10.0,North,11.5,19.6,N/A,,Overcast,10,2013-12-10 14:52:00
9:56 AM,39.2,33.8,81,30.43,10.0,NNE,11.5,17.3,N/A,,Overcast,20,2013-12-10 15:56:00
10:56 AM,42.8,33.8,70,30.42,10.0,NNE,11.5,17.3,N/A,,Overcast,20,2013-12-10 16:56:00
12:50 PM,46.4,33.8,62,30.36,10.0,NNE,13.8,-,N/A,,Scattered Clouds,20,2013-12-10 18:50:00
1:45 PM,48.2,33.8,58,30.33,10.0,NNE,13.8,-,N/A,,Scattered Clouds,20,2013-12-10 19:45:00
2:55 PM,50.0,33.8,54,30.33,10.0,North,9.2,-,N/A,,Clear,360,2013-12-10 20:55:00
3:50 PM,50.0,33.8,54,30.34,10.0,NNE,11.5,16.1,N/A,,Clear,30,2013-12-10 21:50:00
4:55 PM,46.4,33.8,62,30.34,10.0,North,5.8,-,N/A,,Clear,360,2013-12-10 22:55:00
5:55 PM,44.6,33.8,66,30.36,10.0,North,4.6,-,N/A,,Clear,10,2013-12-10 23:55:00
7:55 PM,39.2,33.8,81,30.37,10.0,NNE,3.5,-,N/A,,Clear,20,2013-12-11 01:55:00
8:50 PM,39.2,33.8,81,30.37,10.0,NNE,3.5,-,N/A,,Clear,30,2013-12-11 02:50:00
9:50 PM,39.2,33.8,81,30.38,10.0,NNE,3.5,-,N/A,,Clear,30,2013-12-11 03:50:00
10:15 PM,38.3,33.8,84,30.38,10.0,ENE,3.5,-,N/A,,Clear,60,2013-12-11 04:15:00
10:35 PM,37.6,33.8,86,30.38,10.0,NE,3.5,-,N/A,,Clear,50,2013-12-11 04:35:00
10:55 PM,37.6,33.3,84,30.37,10.0,NE,4.6,-,N/A,,Clear,40,2013-12-11 04:55:00
11:15 PM,37.4,33.1,84,30.38,10.0,NE,3.5,-,N/A,,Clear,50,2013-12-11 05:15:00
11:35 PM,37.0,32.9,85,30.37,10.0,Calm,Calm,-,N/A,,Clear,0,2013-12-11 05:35:00
11:55 PM,36.9,32.9,86,30.37,10.0,Calm,Calm,-,N/A,,Clear,0,2013-12-11 05:55:00